Stündliche Wetter Abilene

Heute, 17 Juni, Donnerstag

Zeit Temperatur Niederschläge Wind Luftdruck Luftfeuchtigkeit
00:00 +26°C° 0 mm 4 m/S 717 mmHg 66%
01:00 +26°C° 0 mm 3 m/S 717 mmHg 69%
02:00 +25°C° 0 mm 3 m/S 717 mmHg 71%
03:00 +25°C° 0 mm 3 m/S 717 mmHg 73%
04:00 +25°C° 0 mm 3 m/S 717 mmHg 75%
05:00 +24°C° 0 mm 3 m/S 717 mmHg 76%
06:00 +26°C° 0 mm 3 m/S 717 mmHg 69%
07:00 +28°C° 0 mm 3 m/S 718 mmHg 61%
08:00 +30°C° 0 mm 3 m/S 718 mmHg 53%
09:00 +33°C° 0 mm 3 m/S 718 mmHg 46%
10:00 +34°C° 0 mm 3 m/S 718 mmHg 39%
11:00 +36°C° 0 mm 2 m/S 718 mmHg 32%
12:00 +36°C° 0 mm 2 m/S 717 mmHg 29%
13:00 +37°C° 0 mm 3 m/S 717 mmHg 27%
14:00 +38°C° 0 mm 3 m/S 716 mmHg 24%
15:00 +37°C° 0 mm 3 m/S 716 mmHg 26%
16:00 +37°C° 0 mm 4 m/S 715 mmHg 27%
17:00 +37°C° 0 mm 4 m/S 715 mmHg 29%
18:00 +35°C° 0 mm 4 m/S 715 mmHg 35%
19:00 +32°C° 0 mm 5 m/S 715 mmHg 42%
20:00 +29°C° 0 mm 5 m/S 715 mmHg 48%
21:00 +29°C° 0 mm 5 m/S 716 mmHg 51%
22:00 +28°C° 0 mm 5 m/S 716 mmHg 54%
23:00 +28°C° 0 mm 5 m/S 716 mmHg 57%

Morgen, 18 Juni, Freitag

Zeit Temperatur Niederschläge Wind Luftdruck Luftfeuchtigkeit
00:00 +27°C° 0 mm 5 m/S 716 mmHg 59%
01:00 +27°C° 0 mm 4 m/S 716 mmHg 61%
02:00 +26°C° 0 mm 4 m/S 715 mmHg 63%
03:00 +26°C° 0 mm 4 m/S 715 mmHg 64%
04:00 +25°C° 0 mm 4 m/S 715 mmHg 65%
05:00 +25°C° 0 mm 3 m/S 715 mmHg 66%
06:00 +27°C° 0 mm 4 m/S 715 mmHg 59%
07:00 +29°C° 0 mm 4 m/S 715 mmHg 53%
08:00 +32°C° 0 mm 4 m/S 716 mmHg 47%
09:00 +33°C° 0 mm 3 m/S 716 mmHg 43%
10:00 +34°C° 0 mm 2 m/S 715 mmHg 39%
11:00 +35°C° 0 mm 1 m/S 715 mmHg 35%
12:00 +36°C° 0 mm 2 m/S 715 mmHg 33%
13:00 +37°C° 0 mm 3 m/S 714 mmHg 31%
14:00 +38°C° 0 mm 3 m/S 714 mmHg 29%
15:00 +37°C° 0 mm 4 m/S 714 mmHg 30%
16:00 +37°C° 0 mm 4 m/S 713 mmHg 31%
17:00 +36°C° 0 mm 5 m/S 713 mmHg 32%
18:00 +34°C° 0 mm 6 m/S 713 mmHg 38%
19:00 +32°C° 0 mm 6 m/S 713 mmHg 44%
20:00 +29°C° 0 mm 7 m/S 714 mmHg 50%
21:00 +28°C° 0 mm 6 m/S 714 mmHg 54%
22:00 +27°C° 0 mm 6 m/S 714 mmHg 57%
23:00 +26°C° 0 mm 6 m/S 714 mmHg 61%

übermorgen, 19 Juni, Samstag

Zeit Temperatur Niederschläge Wind Luftdruck Luftfeuchtigkeit
00:00 +26°C° 0 mm 6 m/S 714 mmHg 61%
01:00 +26°C° 0 mm 5 m/S 713 mmHg 62%
02:00 +25°C° 0 mm 4 m/S 713 mmHg 63%
03:00 +25°C° 0 mm 4 m/S 713 mmHg 65%
04:00 +24°C° 0 mm 3 m/S 713 mmHg 67%
05:00 +24°C° 0 mm 3 m/S 713 mmHg 69%
06:00 +26°C° 0 mm 3 m/S 713 mmHg 62%
07:00 +28°C° 0 mm 4 m/S 714 mmHg 55%
08:00 +30°C° 0 mm 4 m/S 714 mmHg 48%
09:00 +33°C° 0 mm 4 m/S 714 mmHg 44%
10:00 +34°C° 0 mm 3 m/S 713 mmHg 39%
11:00 +36°C° 0 mm 3 m/S 713 mmHg 35%
12:00 +37°C° 0 mm 3 m/S 713 mmHg 32%
13:00 +37°C° 0 mm 2 m/S 712 mmHg 29%
14:00 +38°C° 0 mm 2 m/S 712 mmHg 26%
15:00 +38°C° 0 mm 3 m/S 712 mmHg 27%
16:00 +37°C° 0 mm 4 m/S 711 mmHg 27%
17:00 +37°C° 0 mm 4 m/S 711 mmHg 28%
18:00 +35°C° 0 mm 5 m/S 711 mmHg 31%
19:00 +33°C° 0 mm 6 m/S 711 mmHg 34%
20:00 +30°C° 0 mm 6 m/S 711 mmHg 37%
21:00 +30°C° 0 mm 7 m/S 711 mmHg 38%
22:00 +29°C° 0 mm 7 m/S 711 mmHg 39%
23:00 +28°C° 0 mm 7 m/S 711 mmHg 40%

20 Juni, Sonntag

Zeit Temperatur Niederschläge Wind Luftdruck Luftfeuchtigkeit
00:00 +28°C° 0 mm 7 m/S 711 mmHg 40%
01:00 +28°C° 0 mm 7 m/S 710 mmHg 41%
02:00 +27°C° 0 mm 7 m/S 710 mmHg 41%
03:00 +27°C° 0 mm 7 m/S 710 mmHg 43%
04:00 +26°C° 0 mm 7 m/S 710 mmHg 44%
05:00 +26°C° 0 mm 7 m/S 710 mmHg 45%
06:00 +28°C° 0 mm 7 m/S 710 mmHg 44%
07:00 +31°C° 0 mm 8 m/S 710 mmHg 42%
08:00 +32°C° 0 mm 9 m/S 711 mmHg 41%
09:00 +34°C° 0 mm 8 m/S 711 mmHg 36%
10:00 +36°C° 0 mm 7 m/S 711 mmHg 31%
11:00 +39°C° 0 mm 7 m/S 711 mmHg 26%
12:00 +40°C° 0 mm 7 m/S 710 mmHg 24%
13:00 +41°C° 0 mm 7 m/S 710 mmHg 22%
14:00 +43°C° 0 mm 7 m/S 709 mmHg 20%
15:00 +41°C° 0 mm 7 m/S 709 mmHg 21%
16:00 +41°C° 0 mm 6 m/S 708 mmHg 23%
17:00 +41°C° 0 mm 6 m/S 708 mmHg 24%
18:00 +39°C° 0 mm 7 m/S 708 mmHg 29%
19:00 +36°C° 0 mm 7 m/S 708 mmHg 33%
20:00 +34°C° 0 mm 7 m/S 708 mmHg 37%
21:00 +33°C° 0 mm 8 m/S 708 mmHg 43%
22:00 +32°C° 0 mm 8 m/S 709 mmHg 48%
23:00 +31°C° 0 mm 8 m/S 709 mmHg 54%

21 Juni, Montag

Zeit Temperatur Niederschläge Wind Luftdruck Luftfeuchtigkeit
00:00 +31°C° 0 mm 8 m/S 709 mmHg 57%
01:00 +29°C° 0 mm 8 m/S 709 mmHg 61%
02:00 +29°C° 0 mm 8 m/S 708 mmHg 64%
03:00 +28°C° 0 mm 7 m/S 709 mmHg 70%
04:00 +28°C° 0 mm 7 m/S 709 mmHg 75%
05:00 +27°C° 0 mm 7 m/S 709 mmHg 80%
06:00 +28°C° 0 mm 7 m/S 709 mmHg 74%
07:00 +30°C° 0 mm 7 m/S 710 mmHg 68%
08:00 +32°C° 0 mm 7 m/S 710 mmHg 62%
09:00 +34°C° 0 mm 5 m/S 711 mmHg 54%
10:00 +36°C° 0 mm 4 m/S 711 mmHg 47%
11:00 +38°C° 0 mm 3 m/S 711 mmHg 40%
12:00 +38°C° 0.1 mm 3 m/S 711 mmHg 39%
13:00 +40°C° 0.1 mm 4 m/S 711 mmHg 37%
14:00 +40°C° 0.1 mm 4 m/S 711 mmHg 35%
15:00 +34°C° 5.8 mm 6 m/S 711 mmHg 53%
16:00 +28°C° 5.8 mm 9 m/S 711 mmHg 71%
17:00 +22°C° 5.8 mm 12 m/S 712 mmHg 88%
18:00 +22°C° 0.2 mm 11 m/S 713 mmHg 88%
19:00 +21°C° 0.2 mm 10 m/S 714 mmHg 87%
20:00 +21°C° 0.2 mm 9 m/S 715 mmHg 87%
21:00 +19°C° 0 mm 9 m/S 715 mmHg 85%
22:00 +20°C° 0 mm 8 m/S 716 mmHg 83%
23:00 +18°C° 0 mm 7 m/S 716 mmHg 81%

22 Juni, Dienstag

Zeit Temperatur Niederschläge Wind Luftdruck Luftfeuchtigkeit
00:00 +19°C° 0 mm 6 m/S 717 mmHg 81%
01:00 +19°C° 0 mm 6 m/S 717 mmHg 81%
02:00 +17°C° 0 mm 5 m/S 717 mmHg 80%
03:00 +17°C° 0 mm 5 m/S 718 mmHg 79%
04:00 +17°C° 0 mm 5 m/S 718 mmHg 78%
05:00 +16°C° 0 mm 5 m/S 718 mmHg 77%
06:00 +19°C° 0 mm 6 m/S 718 mmHg 69%
07:00 +20°C° 0 mm 6 m/S 719 mmHg 62%
08:00 +21°C° 0 mm 6 m/S 719 mmHg 54%
09:00 +22°C° 0 mm 6 m/S 719 mmHg 48%
10:00 +24°C° 0 mm 6 m/S 719 mmHg 43%
11:00 +26°C° 0 mm 6 m/S 719 mmHg 37%
12:00 +27°C° 0 mm 5 m/S 718 mmHg 36%
13:00 +28°C° 0 mm 5 m/S 718 mmHg 35%
14:00 +28°C° 0 mm 5 m/S 717 mmHg 34%
15:00 +28°C° 0 mm 4 m/S 717 mmHg 35%
16:00 +28°C° 0 mm 4 m/S 717 mmHg 36%
17:00 +27°C° 0 mm 4 m/S 716 mmHg 38%
18:00 +26°C° 0 mm 4 m/S 716 mmHg 43%
19:00 +23°C° 0 mm 4 m/S 716 mmHg 48%
20:00 +22°C° 0 mm 3 m/S 716 mmHg 53%
21:00 +21°C° 0 mm 3 m/S 716 mmHg 54%
22:00 +21°C° 0 mm 4 m/S 716 mmHg 56%
23:00 +20°C° 0 mm 4 m/S 716 mmHg 58%
Mehr zeigen

Wir brauchen deine Erlaubnis

Meteoprog und unser Service Anbieter werden persönliche Daten aufbewahren, so wie Cookies, Geräte Bezeichnung oder ähnliche Technologien von deinem Gerät und Prozess, so wie Persönliche Daten Inhalte und Werbungen, genauso wie social Media und den Verkehr zu analysieren.

  • Aufbewahrung und/oder Zugang zu deiner Geräte Informationen.

    Cookies, Geräte Bezeichnung oder andere Informationen, können aufbewahrt oder Zugang zu deinem Gerät erhalten, für den Grund, der oben angegeben wird.

  • Personalisierte Werbung und Inhalte, Messungen, Einblick in das Publikum und Produkt Entwicklung.

    Werbungen und Inhalte können personalisiert werden, basierend auf ein Profil. Mehr Daten können besser personalisierte Werbungen und Inhalte hinzufügen. Werbung und Inhalte können gezeigt und gemessen werden. Einblicke über das Publikum, welche die Werbung gesehen haben und den Inhalt, können abgeleitet werden. So wie Daten können genutzt werden, um es zu verbessern oder die Benutzer Erfahrung zu verbessern das System und die Software.

Wenn du “Ich stimme zu” klickst, erlaubst du uns, die Cookies zu benutzen die Geräte Bezeichnung, den Web oder ähnliche Technologien zu benutzen. Deine Settings, können in deinem Gerät bei deinem Browser geändert werden.

Für den bestimmten Zweck, berechtigten Interessen beruhen darauf, mehr als auf den Inhalt. Du kannst mehr darüber in unseren Privaten und Cookie Politik lesen.